Preview of NWS' New Version of Forecast
This preview is not operational and should not be used for support decisions.

Regional Weather Roundup (RWR)

Issued by National Weather Service (NWS)

                            
000
ASUS45 KABQ 210610
RWRNM 
NEW MEXICO REGIONAL WEATHER ROUNDUP
NATIONAL WEATHER SERVICE ALBUQUERQUE NM
1200 AM MDT SAT SEP 21 2019

NOTE: "FAIR" MEANS FEW OR NO CLOUDS BELOW 12,000 FEET AGL WITH NO
       SIGNIFICANT WEATHER OR OBSTRUCTIONS TO VISION.

      THIS PRODUCT IS RELEASED AS TWO VERSIONS.  ONE VERSION NEAR
      THE TOP OF THE HOUR CONTAINING PRELIMINARY DATA FROM ALBUQUERQUE
      AND OTHER STATIONS.  A FINAL VERSION WITH ADDITIONAL DATA IS 
      ISSUED ABOUT 10 MINUTES AFTER THE HOUR.
 
NMZ501-503-504-510>518-210700-
NORTHWEST PLATEAU/NORTHCENTRAL MOUNTAINS
  
CITY           SKY/WX    TMP DP  RH WIND       PRES   REMARKS
FARMINGTON     FAIR      58  19  22 SW6       30.02R                  
6HR MIN TEMP:  58; 6HR MAX TEMP:  79;                                

LOS ALAMOS     FAIR      64  23  21 SE5       30.15R                  
SANTA FE       FAIR      58  32  37 E5        30.10R                  
6HR MIN TEMP:  57; 6HR MAX TEMP:  79;                                

TAOS           FAIR      50  26  39 SE7       30.16R                  

$$
NMZ402-403-502-505>509-210700-
WESTCENTRAL MOUNTAINS/SOUTHWEST MOUNTAINS
  
CITY           SKY/WX    TMP DP  RH WIND       PRES   REMARKS
GALLUP         FAIR      53  24  32 CALM      30.13S                  
6HR MIN TEMP:  52; 6HR MAX TEMP:  75;                                

GRANTS         FAIR      53  32  44 CALM      30.16R                  
SILVER CITY    MOCLDY    58  45  61 N7        30.08S                  

$$
NMZ407-409-411-412-210700-
SOUTHERN DESERTS
  
CITY           SKY/WX    TMP DP  RH WIND       PRES   REMARKS
DEMING         MOCLDY    69  54  58 CALM      30.00S                  
6HR MIN TEMP:  69; 6HR MAX TEMP:  87;                                

LAS CRUCES     FAIR      73  47  40 SW8       30.02S                  
HOLLOMAN AFB   FAIR      72  47  40 E7        29.99                   
ALAMOGORDO     FAIR      68  48  49 E5        29.99F                  
T OR C         FAIR      67  49  52 CALM      30.02R                  
6HR MIN TEMP:  67; 6HR MAX TEMP:  87;                                


$$
NMZ519>523-210700-
CENTRAL VALLEYS/CENTRAL HIGHLANDS
  
CITY           SKY/WX    TMP DP  RH WIND       PRES   REMARKS
ALBUQUERQUE    FAIR      66  32  28 S9        30.06R                  
6HR MIN TEMP:  65; 6HR MAX TEMP:  84;                                

DOUBLE EAGLE   FAIR      61  32  33 W12       30.08S                  
MORIARTY ARPT  FAIR      55  39  55 CALM      30.12S                  
6HR MIN TEMP:  53; 6HR MAX TEMP:  80;                                

CLINES CORNERS FAIR      61  32  33 SW14      30.16F                  
6HR MIN TEMP:  60; 6HR MAX TEMP:  75;                                

BELEN          FAIR      64  32  30 W7        30.05R                  
6HR MIN TEMP:  64; 6HR MAX TEMP:  85;                                

SOCORRO        FAIR      68  36  29 SE6       30.02S                  
6HR MIN TEMP:  66; 6HR MAX TEMP:  86;                                


$$
NMZ524>526-539-540-210700-
SOUTHCENTRAL MOUNTAINS
  
CITY           SKY/WX    TMP DP  RH WIND       PRES   REMARKS
RUIDOSO        FAIR      57  39  51 SW8       30.20S                  

$$
NMZ527>531-210700-
NORTHEAST HIGHLANDS/NORTHEAST PLAINS
  
CITY           SKY/WX    TMP DP  RH WIND       PRES   REMARKS
LAS VEGAS      FAIR      56  39  53 S12       30.13R                  
6HR MIN TEMP:  56; 6HR MAX TEMP:  76;                                

RATON          FAIR      55  46  71 W8        30.06R                  
6HR MIN TEMP:  55; 6HR MAX TEMP:  79;                                

CLAYTON        FAIR      63  59  87 S18       30.00S                  
6HR MIN TEMP:  62; 6HR MAX TEMP:  76;                                


$$
NMZ532>537-210700-
EASTCENTRAL PLAINS
  
CITY           SKY/WX    TMP DP  RH WIND       PRES   REMARKS
TUCUMCARI      FAIR      69  64  84 S18       29.94S                  
6HR MIN TEMP:  66; 6HR MAX TEMP:  75; 6HR PCP: TRACE;                

CANNON AFB     FAIR      67  65  95 SE10      30.04                   
6HR MIN TEMP:  67; 6HR MAX TEMP:  81;                                

CLOVIS AIRPORT MOCLDY    67  65  93 S12       30.04F                  

$$
NMZ028-029-033-538-210700-
SOUTHEAST PLAINS
  
CITY           SKY/WX    TMP DP  RH WIND       PRES   REMARKS
ROSWELL        FAIR      74  62  66 S12       29.96S                  
6HR MIN TEMP:  74; 6HR MAX TEMP:  89;                                

ARTESIA        FAIR      73  64  73 SE10      29.98S                  
CARLSBAD       FAIR      74  61  63 SE7       29.95F                  
6HR MIN TEMP:  74; 6HR MAX TEMP:  92;                                

HOBBS          CLOUDY    72  63  73 SE7       30.01F                  


$$